Location: El Lindero
(10.3057°N, 67.3712°W)
Time: 01:30:42
(UTC+00:00)

Daily predictions for brighter satellites

Satellite Brightness Start Highest point End
(mag) Time Altitude Azimuth Time Altitude Azimuth Time Altitude Azimuth
DELTA 2 R/B (1) 4.1 00:02:48 10° SW 00:07:01 51° SSW 00:07:01 51° SSW
Delta 7925 Rocket 4.4 00:03:55 10° SW 00:10:14 60° SSE 00:10:14 60° SSE
Cosmos 1943 Rocket 4.4 00:12:01 10° WSW 00:16:08 21° WNW 00:20:15 10° NNW
CZ-4C R/B 3.7 07:28:12 57° E 07:28:12 57° E 07:36:18 10° SE
SL-16 R/B 4.5 07:33:03 10° ESE 07:37:44 23° ENE 07:40:03 19° NE
Cosmos 1844 Rocket 4.1 07:52:13 35° ESE 07:52:13 35° ESE 07:55:55 10° SE
ARIANE 5 R/B 4.1 07:59:46 30° SSE 07:59:46 30° SSE 08:07:44 10° ESE
Cosmos 1605 Rocket 4.4 08:10:18 37° NNE 08:12:31 57° E 08:18:32 10° SSE
Cosmos 1727 Rocket 4.0 08:13:30 10° S 08:19:39 77° E 08:25:48 10° N
CZ-3 Stage 3 3.9 08:16:52 45° SW 08:20:41 88° SSE 08:55:31 10° ENE
ARIANE 5 R/B 2.5 08:24:35 46° SSE 08:24:35 46° SSE 08:27:22 10° ESE
ASTEX 1 3.9 08:25:35 10° SSE 08:30:24 56° E 08:33:10 24° NNE
Centaur AC-119 4.1 08:31:37 31° S 08:31:37 31° S 08:34:42 10° SSE
Cosmos 2237 Rocket 2.7 08:29:09 10° S 08:34:42 58° ESE 08:40:14 10° NNE
OAO 3 Rocket 3.8 08:38:27 43° S 08:38:27 43° S 08:42:15 10° SE
DASH 4.4 08:37:32 30° NW 08:40:41 41° N 08:44:26 10° E
Cosmos 1939 Rocket 3.4 08:43:02 48° SSE 08:43:02 48° SSE 08:45:54 10° S
CZ-3 R/B 3.4 08:32:31 32° W 08:42:53 55° NNW 08:50:54 10° NE
Meteor 1-24 Rocket 4.2 08:39:28 10° S 08:45:22 64° E 08:51:06 10° NNE
Cosmos 1844 3.9 08:51:30 44° WSW 08:51:30 44° WSW 08:56:39 10° S
Aurora 2 Rocket 2.6 08:52:57 43° SE 08:52:57 43° SE 08:55:19 10° ESE
CZ-3C R/B 1.5 08:53:47 31° ESE 08:53:47 31° ESE 08:55:51 10° E
Cosmos 614 Rocket 4.0 08:53:41 51° W 08:53:52 51° WSW 08:58:44 10° S
Cosmos 1000 Rocket 4.4 08:48:11 10° SSW 08:54:23 68° W 09:00:38 10° N
EPKM 4.3 08:57:01 15° SE 08:57:01 15° SE 08:57:33 10° SE
Meteor 2-5 Rocket 4.0 08:51:07 10° S 08:57:02 76° E 09:02:57 10° N
Meteor 1-28 Rocket 4.0 08:54:00 10° S 08:56:01 34° S 08:56:01 34° S
Cosmos 2123 Rocket 4.0 08:54:43 10° S 09:00:59 87° E 09:07:13 10° N
FALCON 9 R/B 2.9 08:56:30 24° NW 09:04:37 89° NE 09:09:14 10° SE
CZ-4 R/B 4.1 09:00:33 10° NNE 09:05:17 67° ESE 09:09:56 10° S
SJ-11-01 4.1 09:06:28 10° N 09:11:07 73° WNW 09:15:47 10° SSW
Cosmos 1153 Rocket 4.4 09:05:15 10° N 09:11:27 74° W 09:17:45 10° S
ISS -2.6 09:12:35 20° N 09:14:28 40° NE 09:17:39 10° SE
CZ-4C R/B 4.3 09:13:16 22° W 09:15:35 24° WSW 09:22:29 10° SSW
Meteor 2-21 Rocket 4.4 09:11:06 10° SSW 09:17:14 66° W 09:23:17 10° N
NOAA 12 4.2 09:13:21 10° NNE 09:18:39 83° ESE 09:23:57 10° S
SL-16 R/B 3.2 09:15:35 10° SSW 09:20:58 32° WSW 09:25:07 16° NW
Aureole 1 4.3 09:20:27 10° SSW 09:23:18 45° WNW 09:26:19 10° N
Cosmos 1733 Rocket 3.7 09:27:11 13° NNW 09:30:28 33° W 09:34:21 10° SSW
Cosmos 1340 Rocket 2.5 09:27:04 10° NNW 09:30:45 65° W 09:34:24 10° S
Centaur AC-112 3.6 09:29:23 18° W 09:32:15 64° NNW 09:47:09 10° ENE
SL-16 R/B 3.5 09:27:41 10° S 09:33:04 45° ESE 09:38:27 10° NNE
Cosmos 1844 Rocket 4.4 09:33:56 13° WSW 09:34:01 13° WSW 09:36:23 10° SW
Cosmos 2056 Rocket 4.0 09:29:29 10° S 09:34:46 68° ESE 09:40:06 10° NNE
Cosmos 2084 Rocket 3.5 09:33:41 12° NW 09:37:20 52° WSW 09:41:23 10° S
Iridium 4 Rocket 3.5 09:36:29 10° N 09:40:32 60° E 09:44:40 10° S
GPS 2-15 Rocket1 3.5 09:37:01 15° W 09:40:40 52° SSW 09:45:18 10° SE
UNK 4.4 09:39:13 10° SSW 09:43:13 31° W 09:47:13 10° NW
ATLAS 2A CENTAUR R/B 3.8 09:44:20 10° NNW 09:47:01 32° NE 09:52:50 10° E
Cosmos 1606 2.6 09:45:17 10° NNW 09:47:42 30° W 09:50:08 10° SSW
IRS-1D 4.3 09:47:28 10° NNW 09:51:34 27° WNW 09:55:42 10° SW
Cosmos 1371 Rocket 3.9 09:48:06 10° SSW 09:53:17 77° WNW 09:58:32 10° N
Cosmos 1484 Rocket 2.5 09:51:01 10° NNE 09:54:32 89° ESE 09:58:01 10° S
Cosmos 2100 Rocket 4.3 09:51:32 10° NNW 09:57:22 45° W 10:03:15 10° SSW
Helios 1A Rocket 3.0 10:01:19 10° SSE 10:04:41 63° ENE 10:08:01 10° N
Milstar 3 Cent rocket 4.1 10:04:01 10° WNW 10:22:25 84° SSW 10:30:28 10° ESE
